Terminal Aerodrome Forecast
Issued by NWS

Home | Current Version | Previous Version | Text Only | Print | Product List | Glossary On
Versions: 1 2 3 4 5 6 7 8 9 10 11 12 13 14 15 16 17 18 19 20 21 22 23 24
000
FTUS41 KOKX 192300 RRA
TAFHPN
TAF
KHPN 192341Z 2000/2024 14004KT P6SM FEW040 SCT070
     FM200400 14002KT P6SM SCT025 BKN070
     FM200900 14003KT P6SM OVC020
     FM201400 16007KT P6SM BKN030
     FM201600 16009KT P6SM BKN035
     FM201800 17010KT P6SM SCT040
      AMD NOT SKED=

USA.gov is the U.S. government's official web portal to all federal, state and local government web resources and services.